This is the latest recevied weather packets stored in our database for station/object K0NV. If no packets are shown the sender has not sent any weather packets the latest 10 day(s).
| Time | Temp. | Humidity | Pressure | Rain* | Wind** | Luminosity | Snow |
|---|---|---|---|---|---|---|---|
| 1777910601 | 22.78° C | 55% | 1008.9 hPa | 0 mm | - | 848 W/m² | - |
| 1777910298 | 22.78° C | 58% | 1008.9 hPa | 0 mm | - | 868 W/m² | - |
| 1777909995 | 23.33° C | 57% | 1009.1 hPa | 0 mm | - | 865 W/m² | - |
| 1777909692 | 23.33° C | 56% | 1009.5 hPa | 0 mm | - | 884 W/m² | - |
| 1777909389 | 22.78° C | 57% | 1009.7 hPa | 0 mm | - | 884 W/m² | - |
| 1777909086 | 22.22° C | 56% | 1009.5 hPa | 0 mm | - | 868 W/m² | - |
| 1777908784 | 22.78° C | 56% | 1009.5 hPa | 0 mm | - | 848 W/m² | - |
| 1777908481 | 22.78° C | 56% | 1009.5 hPa | 0 mm | - | 781 W/m² | - |
| 1777908177 | 22.22° C | 55% | 1009.5 hPa | 0 mm | - | 751 W/m² | - |
| 1777907874 | 22.22° C | 56% | 1009.4 hPa | 0 mm | - | 746 W/m² | - |
| 1777907569 | 22.22° C | 56% | 1009.5 hPa | 0 mm | - | 732 W/m² | - |
| 1777907265 | 22.22° C | 57% | 1009.5 hPa | 0 mm | - | 726 W/m² | - |
| 1777906962 | 22.22° C | 57% | 1009.6 hPa | 0 mm | - | 710 W/m² | - |
| 1777906660 | 21.67° C | 58% | 1009.2 hPa | 0 mm | - | 712 W/m² | - |
| 1777906356 | 21.67° C | 56% | 1009.7 hPa | 0 mm | - | 718 W/m² | - |
| 1777906053 | 21.67° C | 57% | 1009.6 hPa | 0 mm | - | 703 W/m² | - |
| 1777905749 | 21.67° C | 58% | 1009.5 hPa | 0 mm | - | 685 W/m² | - |
| 1777905446 | 21.11° C | 56% | 1009.6 hPa | 0 mm | - | 652 W/m² | - |
| 1777905144 | 21.11° C | 57% | 1009.6 hPa | 0 mm | - | 603 W/m² | - |
| 1777904840 | 20.56° C | 56% | 1010 hPa | 0 mm | - | 566 W/m² | - |
| 1777904538 | 20.56° C | 57% | 1009.8 hPa | 0 mm | - | 498 W/m² | - |
| 1777904235 | 20.56° C | 57% | 1009.8 hPa | 0 mm | - | 468 W/m² | - |
| 1777903932 | 20.56° C | 58% | 1010.1 hPa | 0 mm | - | 423 W/m² | - |
| 1777903629 | 20.56° C | 58% | 1010.1 hPa | 0 mm | - | 384 W/m² | - |
| 1777903324 | 20.56° C | 58% | 1010.3 hPa | 0 mm | - | 378 W/m² | - |
* Rain latest hour (hover to see other rain measurements)
** Current wind speed in m/s (hover to see current wind gust speed)